This is the latest recevied weather packets stored in our database for station/object AF9W-5. If no packets are shown the sender has not sent any weather packets the latest 10 day(s).
| Time | Temp. | Humidity | Pressure | Rain* | Wind** | Luminosity | Snow |
|---|---|---|---|---|---|---|---|
| 1777652258 | 22.22° C | 38% | 1013.3 hPa | 0 mm | - | 576 W/m² | - |
| 1777651955 | 21.67° C | 38% | 1013.5 hPa | 0 mm | - | 562 W/m² | - |
| 1777651651 | 21.11° C | 40% | 1013.3 hPa | 0 mm | - | 546 W/m² | - |
| 1777651349 | 20.56° C | 41% | 1013.3 hPa | 0 mm | - | 531 W/m² | - |
| 1777651045 | 20.56° C | 41% | 1013.4 hPa | 0 mm | - | 516 W/m² | - |
| 1777650742 | 20.56° C | 40% | 1013.2 hPa | 0 mm | - | 500 W/m² | - |
| 1777650439 | 20.56° C | 40% | 1013 hPa | 0 mm | - | 482 W/m² | - |
| 1777650136 | 20° C | 41% | 1012.9 hPa | 0 mm | - | 465 W/m² | - |
| 1777649834 | 20° C | 44% | 1013.1 hPa | 0 mm | - | 446 W/m² | - |
| 1777649531 | 20° C | 44% | 1012.8 hPa | 0 mm | - | 427 W/m² | - |
| 1777649227 | 20° C | 44% | 1013 hPa | 0 mm | - | 417 W/m² | - |
| 1777648924 | 19.44° C | 45% | 1013.1 hPa | 0 mm | - | 395 W/m² | - |
| 1777648621 | 18.89° C | 46% | 1012.8 hPa | 0 mm | - | 378 W/m² | - |
| 1777648318 | 19.44° C | 47% | 1013 hPa | 0 mm | - | 361 W/m² | - |
| 1777648014 | 18.89° C | 48% | 1012.6 hPa | 0 mm | - | 349 W/m² | - |
| 1777647711 | 19.44° C | 47% | 1012.8 hPa | 0 mm | - | 326 W/m² | - |
| 1777647406 | 18.89° C | 49% | 1012.6 hPa | 0 mm | - | 306 W/m² | - |
| 1777647105 | 19.44° C | 48% | 1012.4 hPa | 0 mm | - | 292 W/m² | - |
| 1777646801 | 19.44° C | 47% | 1012.6 hPa | 0 mm | - | 276 W/m² | - |
| 1777646496 | 18.89° C | 49% | 1012.5 hPa | 0 mm | - | 260 W/m² | - |
| 1777646192 | 18.33° C | 50% | 1012.5 hPa | 0 mm | - | 240 W/m² | - |
| 1777645891 | 18.89° C | 49% | 1012.3 hPa | 0 mm | - | 229 W/m² | - |
| 1777645587 | 18.89° C | 50% | 1012.5 hPa | 0 mm | - | 212 W/m² | - |
| 1777645284 | 18.33° C | 50% | 1012.5 hPa | 0 mm | - | 194 W/m² | - |
| 1777644979 | 18.33° C | 51% | 1012.4 hPa | 0 mm | - | 177 W/m² | - |
* Rain latest hour (hover to see other rain measurements)
** Current wind speed in m/s (hover to see current wind gust speed)